Simultaneous Nadir Overpasses (SNOs) Predictions

Prediction of SNOs over PacNW region [( 10.00, 139.50) to ( 22.70, 165.60)] between AQUA and NPP Satellites:

Table of predicted SNOs over PacNW region for the next 30.0 days since TLE Epoch: 11/16/2019
Index Date (AQUA) Time (AQUA) AQUA Lat,Lon Date (NPP) Time (NPP) NPP Lat,Lon Distance(km) Time Diff (sec)
1 11/22/2019 15:09:43 22.63, 159.84 11/22/2019 15:11:06 23.18, 157.21 276.25 83
2 11/25/2019 03:31:33 22.68, 147.51 11/25/2019 03:28:03 25.18, 145.12 369.62 210
3 11/30/2019 15:59:09 22.59, 147.48 11/30/2019 16:01:46 23.26, 144.55 309.21 157
4 12/08/2019 15:09:39 22.60, 159.85 12/08/2019 15:10:57 23.20, 157.23 277.30 78
5 12/11/2019 03:31:28 22.70, 147.53 12/11/2019 03:27:58 25.42, 145.07 392.94 210




NCC Satellite Simultaneous Nadir Overpasses (SNOs) Prediction Service
